Theta_e
339 339 341 344 341 340 340 340 342 344 345 347 348 347 348 347 349 347 347 346 346 345 345 344 343 343 344 344 343 342 343 343 346 346 348 348 348 349 348 348 347 347 347 347 346 345 344 344 345 346 346 345 346 345 346 346 346 346 346 346 345 344 343 343 343 342 341 342 342 341 340 342 342 340 339 339 338 338 337 336 336 334 333 333 336
339 342 342 344 345 341 341 341 343 342 344 347 347 347 347 348 346 346 346 346 345 345 344 343 343 343 342 341 342 341 341 341 341 341 342 345 347 348 348 346 344 344 344 343 344 345 345 345 346 346 346 346 346 345 346 345 345 345 344 344 343 342 342 342 341 341 341 341 341 341 340 339 339 339 339 339 337 337 337 335 335 334 333 335 335
342 341 342 344 344 344 344 342 344 344 345 347 347 346 347 346 347 347 347 346 346 345 344 343 343 342 341 341 341 340 340 341 340 340 340 341 342 344 345 344 343 343 343 342 342 344 343 344 344 345 346 346 345 345 345 345 344 343 344 343 342 342 341 341 341 340 339 339 339 339 338 339 337 337 338 338 336 335 335 335 335 334 333 333 333
340 340 341 343 343 346 348 345 346 346 347 347 346 346 346 345 346 345 346 344 341 340 343 342 342 340 342 341 339 340 341 341 341 341 340 340 339 340 341 342 342 342 342 342 342 343 343 344 344 345 344 345 345 345 344 344 344 343 343 342 341 341 340 340 339 338 338 337 336 335 336 337 336 335 337 337 336 333 333 333 333 334 334 332 332
339 339 340 342 343 347 348 347 347 347 347 346 345 346 346 345 345 345 344 343 341 341 342 342 342 342 342 342 341 339 339 341 341 341 340 341 341 341 341 341 341 341 341 342 341 340 341 343 343 345 345 344 344 344 344 343 343 342 341 341 340 340 339 338 337 337 336 335 335 334 333 333 336 335 337 338 335 331 333 332 333 332 331 331 334
337 338 339 340 341 347 347 347 347 347 346 345 346 346 345 345 345 344 344 343 342 342 339 337 337 342 342 339 339 342 341 340 340 338 338 339 340 340 339 339 341 342 342 341 342 345 345 345 345 345 344 343 343 343 343 343 342 341 340 340 339 339 338 337 336 336 334 333 333 334 333 333 333 334 336 334 334 333 332 331 331 332 334 334 334
337 338 338 339 340 345 346 347 347 347 346 346 346 345 345 345 345 344 342 341 341 341 341 338 338 341 341 341 341 341 341 340 341 341 341 340 337 337 339 340 341 341 342 343 342 342 343 344 343 344 344 343 343 343 342 342 341 340 340 339 338 337 337 337 336 335 333 334 333 333 332 333 334 335 334 333 333 332 332 332 330 330 334 333 334
337 337 338 339 343 345 345 346 346 346 346 346 345 345 345 345 344 343 342 340 341 340 342 343 342 338 339 340 339 340 340 340 341 341 340 340 340 340 339 339 341 342 342 341 344 345 344 343 343 343 343 343 342 342 341 340 340 340 339 338 338 337 337 336 334 332 332 332 335 334 333 333 334 334 332 331 333 332 332 329 329 330 335 335 332
337 337 338 339 344 343 344 345 346 346 346 345 345 345 344 343 342 340 339 339 342 341 341 343 341 337 336 341 340 340 337 336 336 335 336 339 339 339 338 339 339 339 340 341 342 343 342 343 343 343 343 342 342 342 341 340 340 339 339 338 337 336 335 334 332 330 330 331 332 333 333 332 333 333 331 331 332 331 331 329 332 334 333 332 332
336 337 337 339 343 340 343 344 346 346 346 346 345 345 343 341 340 340 340 340 340 337 338 339 340 340 340 341 341 339 337 339 338 339 340 340 339 340 339 339 340 340 340 339 340 341 341 342 342 342 343 342 341 341 340 341 339 339 338 338 337 335 334 332 330 329 330 330 330 331 333 334 333 330 332 333 330 329 330 330 332 332 332 331 330
334 335 338 342 344 341 344 345 345 345 345 346 345 345 343 340 340 339 339 341 340 337 335 340 340 339 340 340 339 338 338 339 341 341 341 340 340 340 340 339 339 339 341 341 342 343 343 342 342 341 342 341 340 339 340 339 338 338 337 337 336 335 333 331 329 330 330 330 330 331 330 332 332 331 331 330 329 332 333 331 330 328 328 329 328
333 335 339 343 342 340 344 344 344 345 345 345 344 344 343 341 340 339 339 339 339 338 338 340 342 342 340 337 335 339 338 339 339 339 338 339 338 338 338 338 338 339 339 339 340 340 341 342 340 340 339 339 338 339 339 338 337 337 336 336 335 333 332 329 329 330 331 331 331 331 331 329 330 329 331 330 330 331 330 329 327 327 328 329 328
333 335 337 340 342 338 341 343 344 345 345 345 344 344 343 341 339 339 339 339 339 337 339 340 341 341 340 337 335 334 335 336 337 337 337 337 338 337 337 337 337 337 339 340 340 340 340 341 339 339 338 338 338 338 337 337 337 336 336 335 334 332 330 328 330 330 330 331 330 330 330 332 329 330 331 330 330 330 329 327 327 327 326 328 326
333 335 337 338 341 340 337 339 342 344 345 345 344 343 342 340 339 338 338 338 337 339 342 342 342 342 340 338 337 337 337 336 336 336 337 337 337 338 338 338 337 337 339 340 339 339 339 339 338 338 337 338 338 338 337 337 337 336 335 334 333 331 327 327 328 330 330 329 330 330 330 331 332 330 329 328 327 327 327 327 328 327 326 326 326
333 335 335 337 338 341 338 337 340 341 343 345 344 343 341 341 339 338 338 337 337 342 340 340 341 342 339 338 335 335 336 336 336 336 337 338 338 338 336 336 337 337 338 338 338 338 338 338 337 337 337 338 338 338 337 336 336 335 334 333 331 329 325 328 329 329 328 329 329 329 330 331 332 329 327 328 330 328 328 327 327 327 328 328 327
335 334 334 334 336 337 340 338 334 336 340 341 341 342 342 341 340 338 337 336 335 336 339 341 341 341 340 338 337 336 335 336 337 337 338 337 336 336 337 337 337 337 337 337 337 337 338 337 336 336 336 336 336 337 337 336 336 334 333 332 329 328 323 325 329 329 328 328 328 329 329 330 335 329 330 330 330 330 328 326 327 326 325 326 327
335 335 334 333 334 334 336 338 335 332 333 335 337 338 340 341 340 340 340 341 342 339 341 341 341 341 340 338 337 338 339 337 339 339 338 338 338 336 336 337 336 336 336 337 337 337 337 336 336 335 335 335 335 336 336 335 334 333 332 330 330 326 323 322 329 328 327 328 328 328 328 331 332 327 330 329 328 328 328 328 327 326 324 326 326
336 336 335 334 334 334 333 336 337 338 340 336 332 336 338 340 340 339 341 341 342 342 341 341 341 341 340 339 338 338 338 339 338 338 337 336 334 336 338 335 335 335 335 335 337 337 336 335 335 335 335 334 334 334 333 333 333 332 330 329 327 324 322 322 328 327 327 327 328 328 328 328 334 329 330 330 330 328 328 326 327 327 327 325 324
334 335 335 335 334 334 334 336 335 335 336 337 340 339 332 335 337 338 339 340 340 339 338 337 338 339 338 337 336 335 334 334 335 336 336 335 333 331 335 337 335 336 335 335 335 336 335 335 334 333 333 333 333 333 332 331 330 329 328 326 322 319 318 324 327 327 327 327 328 328 328 330 331 330 331 330 330 328 327 327 328 325 327 327 326
331 332 333 334 335 334 334 334 334 333 334 334 335 337 332 330 333 335 335 336 336 336 334 332 331 331 331 331 329 332 329 331 326 332 329 332 330 330 332 335 335 334 334 335 335 335 335 335 334 333 332 330 330 329 329 330 329 327 325 324 320 318 327 326 327 327 326 327 327 327 327 330 332 333 332 330 331 329 327 325 328 327 327 327 326
328 328 330 332 334 334 333 333 333 332 333 333 334 335 333 328 329 329 330 331 332 331 329 324 323 322 325 322 325 334 334 334 334 334 325 334 323 326 332 336 335 335 334 334 335 334 335 335 335 333 331 327 322 321 322 325 326 325 322 319 315 328 327 327 326 326 326 327 327 328 326 330 332 333 333 333 334 331 329 325 326 326 327 326 325
326 326 329 330 332 334 333 333 332 332 332 333 333 333 333 330 333 332 332 331 327 324 328 330 326 329 320 327 332 331 331 332 333 331 333 333 331 323 329 334 335 334 335 334 334 334 335 335 333 332 329 325 318 322 322 319 320 320 317 315 326 327 327 326 326 326 326 327 326 326 326 330 331 332 333 334 333 333 328 325 327 327 327 327 327
324 325 327 329 330 332 333 332 332 332 332 332 332 332 332 331 332 331 329 326 329 328 329 328 327 326 326 328 328 329 328 328 327 326 327 319 324 322 328 330 330 329 332 331 331 332 333 332 329 327 325 319 323 325 325 325 325 316 316 323 325 325 325 326 327 327 327 326 326 323 326 330 331 332 332 333 333 333 328 327 328 328 328 328 327
324 325 326 328 329 330 331 332 332 332 332 331 332 332 332 330 331 331 329 328 327 327 326 326 326 326 326 327 326 325 325 327 325 325 324 327 325 320 320 322 323 323 324 326 325 324 323 322 321 320 317 318 324 325 326 326 326 324 324 324 325 324 324 325 326 327 327 326 326 321 324 328 331 331 332 332 333 332 331 330 331 330 328 329 329
325 325 326 327 328 328 329 331 332 332 332 331 330 331 331 329 330 330 329 328 327 326 326 326 326 325 323 325 323 321 323 324 324 324 324 324 325 326 327 326 323 325 322 326 324 323 320 319 319 318 319 320 325 324 325 327 326 325 324 323 323 323 324 324 324 325 326 326 325 319 322 325 330 332 334 334 332 333 334 333 333 332 331 331 331
326 324 324 326 328 328 329 330 331 332 332 331 330 330 331 329 328 329 330 328 327 325 325 326 326 325 324 323 323 322 322 322 323 324 323 323 325 324 322 321 323 325 322 323 321 320 319 318 316 320 318 318 321 321 321 321 324 325 324 324 323 324 324 324 324 325 325 325 325 319 322 325 330 331 332 333 333 333 333 333 333 333 332 332 332
324 324 325 325 327 328 329 329 329 331 331 332 331 330 330 330 329 328 329 329 328 326 325 325 326 325 323 323 326 323 321 322 322 322 324 323 324 321 322 321 323 324 323 323 321 319 318 318 317 318 317 319 321 322 322 321 319 322 323 323 323 322 323 323 323 324 324 324 321 317 320 325 327 329 331 332 332 332 333 333 334 334 332 333 333
326 326 325 325 327 327 328 328 328 330 330 331 330 330 330 330 329 325 328 329 328 327 326 325 324 324 324 325 325 326 325 323 321 321 322 321 323 321 320 321 320 321 322 320 321 320 318 317 317 317 320 319 322 323 322 321 321 320 322 323 322 321 321 321 320 321 322 323 323 320 317 321 323 326 330 331 332 332 332 332 333 335 335 334 333
327 327 326 326 327 328 328 328 328 328 329 330 329 329 329 329 329 328 327 326 328 328 328 327 325 324 324 325 326 326 325 325 325 323 319 323 322 320 321 322 320 319 321 321 320 320 319 318 318 320 319 322 322 323 321 322 320 320 320 322 322 321 320 319 320 321 321 322 322 320 316 318 321 325 327 330 331 331 332 332 332 333 333 334 333
329 329 328 327 328 328 328 327 328 328 329 329 329 328 328 328 329 328 328 325 326 327 327 326 327 325 325 325 325 327 327 326 326 323 324 323 320 320 320 321 321 320 320 322 320 319 321 318 320 323 323 323 322 322 320 322 323 321 320 321 323 322 321 320 321 321 320 320 321 321 315 316 318 322 325 326 330 331 331 331 332 332 333 334 333
331 330 330 329 329 328 328 328 328 328 329 328 328 327 327 327 328 328 328 327 327 325 325 326 326 326 326 325 325 325 326 326 326 324 324 323 322 322 322 320 321 320 320 321 319 320 320 322 324 325 325 324 324 322 320 321 324 324 324 322 323 322 321 320 320 320 319 320 320 320 320 315 316 318 321 324 326 327 329 330 331 332 332 333 333
331 331 332 332 331 330 328 329 328 329 328 328 328 327 327 327 327 328 328 328 328 326 326 326 325 326 326 325 325 325 325 326 325 324 324 323 323 323 322 321 323 322 320 322 321 319 321 322 321 321 322 321 322 322 320 320 323 323 323 322 321 319 320 320 320 320 319 320 320 320 320 319 315 316 317 320 323 324 326 327 328 329 331 332 333
332 333 333 333 332 332 330 330 329 329 328 328 328 328 328 327 327 326 327 327 327 326 326 326 326 326 326 325 325 325 325 325 324 324 322 323 322 322 322 322 323 322 321 321 321 320 320 320 321 320 320 319 319 321 322 321 321 321 320 321 319 320 320 319 319 319 319 319 319 319 319 319 319 314 314 316 318 321 323 324 325 327 329 330 331
331 332 333 332 333 334 333 332 331 329 328 328 329 328 328 328 327 327 326 326 326 326 326 327 326 326 326 325 326 325 325 325 324 323 322 322 321 322 322 322 322 321 321 320 320 320 320 319 320 319 319 320 322 323 322 322 322 320 319 320 319 320 319 318 318 318 318 318 319 319 318 319 319 319 319 315 315 316 319 322 323 325 325 326 327
330 330 331 332 332 333 334 333 332 330 329 329 329 329 330 329 328 327 326 326 325 325 327 326 326 326 326 326 326 325 325 325 324 324 321 321 321 320 320 322 322 320 320 320 321 320 321 321 321 322 323 322 322 321 320 321 321 320 320 320 319 319 318 317 318 319 318 318 318 318 318 318 318 318 318 318 312 313 315 318 321 322 323 324 325
329 330 330 330 331 332 333 333 333 332 330 329 330 330 330 331 330 325 327 327 326 326 327 327 327 326 326 326 326 326 325 325 323 323 322 321 321 321 322 322 322 320 321 321 321 321 321 321 320 321 321 322 320 320 321 321 320 320 320 319 318 318 319 319 320 319 318 317 317 317 317 317 317 317 313 317 317 315 312 314 317 318 318 321 322
329 329 329 328 329 330 330 331 332 332 332 331 331 331 332 331 330 329 329 328 327 327 327 327 326 326 326 326 326 326 325 325 323 322 323 322 323 323 323 323 323 323 323 322 322 323 323 322 321 320 321 321 319 321 322 321 320 319 318 318 319 319 320 320 319 318 317 317 317 316 316 316 316 310 316 315 316 316 312 311 312 313 313 315 319
327 328 329 328 328 329 330 330 332 333 333 333 332 332 332 332 331 331 328 328 328 328 328 327 326 327 326 326 326 326 325 325 324 323 324 324 325 326 327 325 324 324 324 324 325 324 323 323 323 322 320 320 320 321 320 320 318 318 318 318 319 320 320 319 318 313 316 316 316 316 315 314 315 315 314 315 315 314 315 313 311 311 310 312 316
325 325 326 327 327 328 328 328 329 332 332 333 332 332 332 332 331 331 329 328 327 328 328 327 327 327 326 327 326 325 325 326 325 324 324 325 325 327 328 326 325 326 326 325 324 323 322 322 322 323 320 320 321 320 319 319 318 318 317 318 319 319 319 317 315 316 316 316 314 313 314 314 314 315 314 314 314 314 313 314 314 314 314 310 313
323 323 323 325 325 326 327 327 328 331 332 332 332 331 331 328 327 328 327 326 327 326 327 328 328 327 327 327 327 327 327 326 326 326 326 326 326 326 328 328 327 327 326 325 325 323 323 320 319 319 319 319 318 319 318 317 317 316 316 317 318 317 318 316 316 316 315 315 314 313 314 314 315 315 315 313 313 313 313 313 311 313 313 311 310
321 322 322 323 324 325 325 325 327 328 329 329 330 329 328 328 328 327 327 328 327 327 327 327 328 328 327 327 327 327 328 327 327 327 326 324 326 327 328 327 326 325 323 324 327 326 323 321 318 316 319 319 321 318 315 314 316 319 316 316 319 319 317 315 315 316 317 315 314 314 313 314 316 315 314 312 313 313 313 313 313 312 312 312 311
320 321 321 322 324 324 324 325 326 326 328 330 330 330 330 330 329 328 329 329 327 326 327 328 328 329 328 328 327 327 328 328 327 327 327 327 326 326 326 328 327 326 325 324 322 320 322 318 317 318 317 319 319 317 316 317 315 314 314 315 316 319 318 315 313 317 318 316 314 314 313 314 314 314 312 311 312 312 312 312 312 312 312 312 311
321 321 322 323 323 323 324 325 326 325 327 329 330 330 332 332 332 331 330 329 331 332 332 331 330 330 329 329 329 329 328 328 327 327 328 328 328 328 327 328 326 325 324 323 323 322 322 321 319 320 319 315 317 314 316 318 317 312 315 314 311 311 314 316 312 316 316 316 314 315 312 313 313 312 310 311 311 311 311 311 311 311 311 311 311
320 321 321 321 322 322 324 324 325 325 326 327 326 331 331 332 333 332 332 332 329 329 331 331 330 329 328 329 330 329 329 328 328 327 327 328 328 328 329 328 327 326 327 326 323 323 322 321 320 318 318 318 314 314 314 315 316 314 312 311 310 308 307 310 309 314 312 313 312 313 312 311 311 312 311 309 309 309 310 310 310 310 310 310 310
317 319 320 321 322 323 323 324 324 324 326 325 326 328 327 327 327 324 324 324 321 324 325 325 327 327 328 328 328 329 329 329 330 330 329 328 328 329 327 327 328 324 324 324 324 324 323 323 321 319 316 318 317 316 314 314 314 315 316 311 311 307 306 309 309 311 313 313 312 311 311 310 310 309 309 308 309 308 308 309 309 309 309 309 309
316 318 321 321 322 323 323 323 324 324 324 325 326 326 326 327 324 323 322 322 323 322 322 323 323 324 326 327 329 329 329 329 330 330 328 328 329 329 329 328 326 323 322 324 324 323 322 321 320 320 317 318 319 316 315 312 312 313 315 317 315 311 309 308 308 305 312 311 312 312 309 310 310 308 306 306 306 306 307 307 308 307 307 307 307
314 317 319 321 322 322 323 323 324 324 324 324 324 324 326 326 326 326 326 325 324 326 326 327 327 327 327 327 328 328 330 330 329 329 329 329 329 328 328 326 325 325 323 323 322 322 322 322 320 319 320 318 318 316 315 313 312 313 313 313 312 311 313 308 305 306 301 307 308 306 307 310 308 305 304 304 305 305 306 306 306 305 305 306 306
312 315 317 318 320 321 322 322 323 322 324 324 323 324 325 325 325 326 326 326 326 327 327 326 328 327 326 327 327 327 326 327 329 328 329 328 327 327 327 326 324 324 322 322 322 320 318 316 317 319 317 318 318 317 315 313 313 310 312 313 311 310 310 311 310 305 302 299 300 304 307 306 302 302 303 303 303 304 304 304 303 303 304 306 306
309 312 314 317 319 320 321 321 322 322 322 323 323 323 324 325 325 326 325 325 327 327 324 323 325 324 326 324 325 325 325 325 326 327 327 327 324 325 325 325 324 322 318 320 319 319 319 317 315 316 317 316 316 315 314 312 310 310 309 309 309 308 306 306 306 305 301 298 298 299 299 300 299 299 301 302 302 304 302 301 301 302 304 305 305
306 310 311 314 316 318 319 319 320 322 322 322 322 323 324 323 324 324 324 324 324 321 319 319 322 321 324 321 322 323 323 323 324 325 325 325 324 323 323 323 322 319 316 318 318 317 316 317 317 316 316 314 314 313 312 311 310 311 311 309 307 305 303 304 304 301 300 301 297 296 297 294 292 294 297 300 302 299 299 300 301 303 304 304 304
301 306 309 312 314 316 318 318 320 322 321 322 321 322 323 324 324 324 324 324 323 321 316 317 319 318 321 319 317 320 320 321 320 320 321 322 322 320 322 321 320 316 316 316 315 316 316 315 314 314 313 312 311 311 310 310 310 309 308 308 306 305 302 300 299 299 298 295 294 293 293 293 292 292 297 300 296 297 298 300 301 302 303 303 303
Wind_Speed
4 3 1 3 0 4 5 6 6 7 7 9 10 11 11 12 12 13 14 15 14 14 14 14 15 15 15 15 14 13 14 12 13 15 16 17 16 17 17 18 19 18 18 18 17 17 18 18 18 18 19 19 19 19 18 19 18 19 19 20 19 19 18 18 18 18 17 18 18 19 17 17 18 17 17 17 17 16 13 15 12 11 10 13 16
7 2 1 2 2 5 6 6 6 5 6 9 9 11 11 11 13 14 13 15 15 14 14 14 14 14 15 15 15 14 13 13 12 12 12 15 16 17 17 18 18 18 18 16 17 18 17 18 18 18 19 19 19 18 18 19 19 19 18 19 18 18 18 18 17 17 16 16 15 14 16 18 16 17 17 17 17 17 13 15 14 10 9 15 16
4 2 0 1 2 3 2 7 7 5 5 9 9 11 10 12 14 13 15 15 15 13 12 14 15 14 14 14 15 15 15 14 13 12 12 12 13 13 16 16 15 16 16 16 16 17 17 17 17 18 18 18 18 18 18 18 18 18 18 18 18 17 17 17 17 16 15 15 14 12 11 14 16 16 16 16 16 16 14 15 14 12 11 15 14
5 2 1 2 6 6 7 8 6 5 7 9 10 10 11 14 14 14 14 15 14 12 14 14 14 13 14 15 14 14 15 14 15 14 14 13 12 12 12 13 14 15 16 16 16 16 17 18 17 18 18 18 18 18 18 18 17 17 17 17 17 17 17 16 16 15 15 14 13 10 8 8 9 15 15 15 16 15 12 14 14 15 15 13 11
4 2 2 4 4 6 7 7 7 7 9 9 10 11 11 12 14 14 15 16 14 13 14 14 13 13 14 15 14 14 14 15 14 14 15 14 15 13 14 15 15 15 16 17 16 16 16 17 17 18 18 18 17 17 17 17 17 17 16 16 16 16 16 16 15 15 14 13 12 8 9 9 8 15 16 16 16 14 12 14 14 15 13 15 17
4 2 3 4 4 5 6 6 7 8 10 11 12 11 12 11 13 14 14 15 13 13 13 11 11 14 13 13 13 14 14 14 14 14 14 15 15 14 13 14 16 16 16 16 16 17 18 18 18 18 18 17 17 16 16 16 16 16 15 15 16 16 16 15 15 14 12 9 8 7 8 8 8 9 16 16 16 13 14 15 15 14 16 18 16
5 2 4 4 3 4 6 7 9 10 11 12 11 11 13 13 13 14 13 13 13 13 13 13 12 14 14 15 13 13 14 14 14 14 15 15 15 14 13 14 16 16 16 15 15 15 16 16 17 17 17 16 16 16 15 15 15 15 15 15 15 15 15 14 13 12 9 6 7 7 7 8 7 5 16 14 15 15 16 16 15 14 15 15 16
4 3 3 4 3 5 7 9 10 11 11 12 13 12 13 14 14 13 12 11 12 13 14 14 14 14 12 12 13 14 13 14 14 14 15 15 15 14 13 13 16 15 15 15 16 16 16 16 16 16 17 16 16 15 14 15 14 14 14 14 15 14 13 13 12 10 9 7 6 7 7 8 7 5 14 14 15 15 14 13 13 14 17 16 12
4 3 4 3 4 7 7 8 11 12 12 13 13 12 13 14 13 12 10 12 13 12 14 15 14 13 12 13 12 13 12 12 13 12 14 14 12 13 13 12 13 14 14 14 15 16 16 16 16 16 16 16 15 15 14 14 14 14 14 14 13 13 12 11 11 8 6 6 7 8 9 9 9 7 11 14 14 14 12 9 13 15 15 14 13
3 3 3 3 4 6 8 8 11 12 13 13 13 13 14 13 12 11 10 12 12 11 10 11 12 12 12 12 12 13 12 14 13 14 14 13 14 13 12 11 12 14 13 13 13 14 15 15 15 16 16 15 15 14 14 14 14 13 13 13 13 12 11 11 9 7 6 6 7 6 7 8 7 7 11 14 12 13 10 6 11 10 11 12 14
4 3 2 4 5 5 9 11 11 11 12 12 13 13 13 12 12 10 8 11 10 10 8 12 12 12 12 13 13 12 12 13 13 13 13 13 13 13 12 11 11 14 14 14 15 15 15 15 15 15 15 14 13 13 13 13 12 12 12 12 12 11 11 9 6 5 6 6 7 6 7 6 4 7 10 11 11 14 6 8 15 11 11 13 13
4 3 3 4 6 8 10 10 11 12 12 11 13 12 12 12 12 9 7 8 10 10 10 11 11 11 11 12 11 11 12 12 13 12 12 12 12 12 12 11 11 12 13 13 14 13 13 14 15 14 13 13 13 12 12 12 12 11 11 11 11 11 9 8 5 5 5 6 7 6 7 7 5 9 13 11 13 15 12 12 12 11 12 13 13
5 4 4 4 5 8 9 9 10 12 11 10 12 12 12 12 11 9 7 8 10 9 11 10 10 11 12 11 11 9 10 11 10 11 11 11 11 11 11 10 11 11 14 13 13 13 14 14 14 13 12 12 11 11 11 11 11 11 10 10 10 9 8 7 4 5 5 5 5 6 7 6 7 14 13 12 13 13 13 12 10 12 12 11 11
7 5 4 4 4 7 8 9 10 10 9 8 11 11 12 11 10 9 8 8 7 10 11 10 11 11 11 11 11 10 10 10 10 10 10 11 11 11 11 10 10 11 12 12 13 13 13 13 12 12 11 11 10 10 10 9 10 9 9 9 8 7 6 5 4 4 5 5 5 5 5 5 5 13 11 9 8 9 9 10 13 11 9 8 11
8 6 5 4 4 5 8 9 9 9 8 7 8 9 11 11 10 9 9 7 6 11 10 9 10 11 11 11 10 10 10 10 10 10 10 10 11 11 11 10 10 10 10 12 13 12 13 13 12 11 11 10 9 9 9 8 8 8 8 8 7 7 6 4 3 4 4 4 4 5 5 5 10 11 8 10 14 12 12 13 13 13 13 12 11
7 7 6 5 5 4 4 8 10 9 8 6 5 7 10 10 9 9 8 8 6 6 9 9 10 10 10 11 10 9 10 10 10 9 8 10 10 11 10 10 9 9 10 10 10 11 11 12 11 11 11 10 9 8 8 8 7 7 7 7 7 6 6 3 3 3 3 3 3 4 5 6 10 9 12 14 15 14 12 9 12 12 11 10 10
7 6 7 6 6 5 4 4 7 9 8 7 7 8 8 8 8 8 6 4 5 7 10 9 9 10 11 11 10 8 9 11 11 12 11 10 9 8 9 9 9 8 9 9 10 10 11 11 11 11 11 11 11 10 9 8 7 7 7 7 7 7 7 5 3 3 3 4 3 4 4 4 10 7 11 12 10 11 11 12 11 10 8 11 10
8 7 6 6 6 5 4 3 5 5 5 6 8 8 7 7 7 7 8 8 9 10 12 11 10 9 9 10 9 9 9 10 10 10 10 10 10 8 6 8 8 8 8 9 10 10 10 10 10 11 11 11 11 11 11 10 9 8 7 7 7 7 6 5 3 3 3 3 3 3 3 7 11 7 10 11 11 9 10 8 9 12 10 8 9
8 7 8 7 5 5 4 3 5 5 5 3 4 6 7 7 8 9 9 9 9 9 9 9 9 8 8 9 9 9 9 9 8 8 8 9 8 8 9 8 8 9 8 8 8 9 9 9 11 11 11 12 12 12 12 11 10 9 7 7 6 6 6 3 3 3 3 3 4 4 4 8 11 8 8 9 9 8 7 7 11 6 11 12 9
7 8 8 8 7 5 5 4 4 5 4 4 4 4 5 7 8 9 9 8 8 8 8 9 9 8 8 9 9 8 7 7 8 7 8 8 8 7 8 6 7 7 7 7 7 8 8 9 10 11 11 11 10 10 11 10 10 8 7 5 4 4 3 2 3 3 3 3 4 3 6 11 12 12 10 8 10 7 4 2 8 7 9 9 9
5 7 7 8 9 7 7 5 5 5 5 5 5 5 5 6 6 7 9 8 8 8 8 8 8 7 7 7 7 5 4 4 4 4 6 6 7 8 8 8 7 7 7 7 6 7 7 8 10 10 10 10 9 9 9 9 9 8 7 5 3 2 2 2 3 2 3 3 3 3 8 11 13 14 13 12 13 10 7 3 4 4 8 9 8
7 6 6 7 8 8 7 7 5 6 6 5 4 4 4 4 5 5 5 6 6 6 5 4 4 4 5 4 3 3 3 3 3 3 3 4 5 7 7 7 7 5 6 6 6 7 8 10 10 10 9 8 8 4 4 5 6 7 7 6 3 2 2 3 3 2 3 3 3 4 9 10 12 13 13 12 13 13 4 2 4 4 5 10 10
7 7 6 9 8 8 8 6 6 6 7 6 5 4 5 4 5 4 4 5 5 5 4 5 3 4 3 3 3 3 3 3 3 3 4 6 6 6 7 7 8 9 8 9 9 8 8 8 8 8 8 7 4 2 2 2 2 5 5 4 2 2 2 3 2 2 3 3 3 5 8 11 12 12 11 13 13 12 3 3 6 6 6 8 9
9 8 7 7 9 8 9 8 7 7 7 5 5 5 5 4 4 4 4 4 4 4 4 4 4 4 4 3 3 3 3 3 5 6 4 3 3 5 6 7 7 8 7 5 6 7 6 7 7 6 4 3 2 2 2 2 2 2 2 2 2 2 2 2 2 2 2 2 3 6 7 10 11 12 12 13 13 14 10 7 11 8 7 9 11
7 7 6 8 10 9 9 9 8 7 7 6 6 6 5 4 4 4 5 4 3 3 3 3 4 4 4 3 3 3 3 3 2 2 2 2 2 2 2 2 2 2 3 2 3 3 4 3 4 4 2 3 2 3 2 3 2 2 2 2 2 2 2 2 2 2 3 2 3 6 7 9 10 12 12 13 14 15 16 15 13 13 11 12 13
6 6 8 8 9 8 9 8 10 9 8 7 7 6 6 5 5 5 5 4 4 4 3 3 3 3 3 4 3 3 3 2 3 2 2 2 2 1 1 1 2 2 2 2 2 2 2 2 2 3 2 2 1 1 1 1 3 2 2 2 2 2 2 2 2 3 3 3 3 6 7 8 10 11 12 13 14 15 15 16 17 15 14 14 15
8 8 7 7 8 9 9 9 9 9 9 8 6 6 6 5 5 5 6 5 4 4 4 3 3 3 3 3 4 3 2 2 2 2 2 1 2 1 1 1 1 1 1 1 2 2 1 1 1 1 1 1 1 1 1 1 0 1 2 2 2 2 2 2 2 3 3 3 4 7 7 9 10 11 12 13 14 14 15 16 18 18 16 16 16
6 8 8 7 8 10 10 9 9 9 8 8 7 6 6 6 6 5 5 6 5 5 4 4 3 3 4 3 3 3 3 3 2 2 2 2 2 1 1 1 1 1 1 0 0 1 1 0 0 1 1 1 1 2 1 1 1 1 2 2 2 2 2 2 2 3 3 3 4 7 8 8 8 10 12 13 14 15 15 16 16 18 19 19 17
8 8 8 8 9 9 10 10 9 9 8 8 7 6 5 6 7 5 6 5 6 6 5 4 4 4 4 4 3 3 2 2 3 2 2 2 2 2 2 2 1 1 1 1 1 1 1 1 1 1 1 1 1 2 2 2 1 1 2 4 3 3 2 2 2 3 3 3 4 6 9 9 10 11 12 13 14 15 16 16 17 17 18 19 19
10 9 8 9 8 9 10 11 10 9 7 8 7 6 6 7 7 8 6 6 7 7 6 5 5 5 5 5 4 3 3 3 2 1 2 3 2 2 2 3 3 2 2 2 2 2 2 1 2 2 2 2 2 1 1 3 3 2 2 3 3 2 2 2 3 3 3 3 4 5 9 8 9 11 12 13 15 15 16 16 17 17 18 18 19
9 10 9 8 8 10 10 11 10 8 7 9 8 7 6 7 7 7 7 7 6 6 6 6 6 5 5 5 5 4 3 3 2 2 2 2 2 2 3 2 3 3 3 3 2 2 2 3 2 2 2 2 2 1 1 3 4 4 2 2 3 3 2 2 3 3 3 3 4 4 6 8 8 10 11 13 14 14 15 16 16 17 18 18 19
10 10 9 8 8 11 11 11 10 9 8 8 7 7 7 6 6 5 7 7 6 6 6 5 6 5 5 6 5 5 4 3 3 3 3 3 3 2 1 2 3 1 3 3 2 3 3 3 3 2 2 2 3 2 2 2 3 4 4 4 3 3 3 3 3 3 3 3 4 4 4 5 7 7 9 11 13 13 14 15 15 16 17 17 18
7 8 8 8 10 10 10 11 11 9 11 10 9 8 6 5 6 6 6 7 7 6 6 6 5 5 5 6 6 5 5 4 4 4 4 3 3 2 2 3 3 2 2 3 2 2 2 2 2 2 2 2 2 3 1 2 3 4 3 3 3 3 3 3 3 4 4 4 4 4 4 4 5 6 7 7 10 11 12 13 14 15 16 16 17
8 7 9 10 8 7 8 8 10 11 12 10 8 7 7 6 5 5 5 6 7 8 7 6 6 5 6 6 6 6 6 5 4 4 3 3 3 3 3 3 3 3 2 2 2 2 2 2 2 2 3 3 4 2 1 3 3 2 2 3 3 3 3 4 4 4 4 4 4 4 4 4 4 4 5 7 6 8 11 12 13 14 15 15 16
8 8 10 10 10 9 7 8 9 11 10 11 10 9 8 7 7 6 7 8 7 8 7 6 6 5 6 6 7 6 7 6 4 4 4 3 3 3 4 4 3 3 2 3 3 2 3 4 2 3 2 2 2 2 2 3 3 4 4 3 3 3 3 4 4 4 4 4 4 4 4 5 4 4 4 5 6 6 8 11 12 13 14 15 15
12 11 9 8 9 9 8 8 8 11 12 11 10 9 9 8 7 7 7 8 7 7 7 6 5 4 5 5 7 7 7 5 5 4 4 4 4 4 4 3 3 3 3 2 2 3 3 3 3 2 2 3 2 3 2 3 2 5 4 3 3 4 4 4 4 4 3 4 4 4 4 4 4 4 5 4 5 7 8 9 11 12 13 14 15
11 11 10 10 10 10 10 10 10 10 11 10 11 10 9 9 10 9 8 8 8 7 6 7 6 6 5 5 6 7 7 6 6 5 4 4 4 3 3 3 3 3 3 4 4 3 4 4 3 4 4 4 3 5 4 1 3 4 3 4 5 4 4 4 4 3 3 3 4 4 4 4 4 5 3 4 4 5 7 8 9 10 10 12 13
11 12 12 14 13 11 11 11 11 10 10 10 10 11 10 10 9 8 8 8 9 7 6 6 6 7 5 5 5 6 5 6 6 6 5 5 5 6 5 4 3 3 3 3 5 3 3 3 4 2 3 3 3 4 4 3 3 3 3 4 6 4 4 4 2 2 3 4 3 3 4 4 4 4 4 4 4 4 5 7 8 8 8 9 13
10 12 11 11 10 11 10 11 11 11 10 11 10 9 9 9 8 8 8 8 7 7 6 6 6 6 7 7 6 5 6 6 7 6 6 5 5 5 6 6 5 4 4 4 3 3 3 3 4 3 1 2 4 3 3 3 4 3 4 5 5 5 4 2 1 1 2 2 3 3 2 3 3 3 4 3 4 4 5 5 5 6 7 10 11
8 8 10 10 11 10 10 10 11 11 9 9 8 9 8 8 9 7 8 7 7 6 7 7 6 7 7 6 6 6 6 6 7 7 6 5 5 5 6 6 6 6 6 5 5 4 6 5 4 4 2 2 3 3 2 2 3 3 5 4 4 4 5 1 1 1 2 1 2 2 3 3 2 3 3 4 4 4 4 5 5 5 6 8 10
9 9 10 11 12 13 11 12 11 10 10 10 9 10 10 9 8 11 9 7 7 7 7 7 7 7 7 6 6 6 6 7 7 7 7 7 6 6 7 7 7 6 6 7 6 5 3 4 3 3 3 3 4 1 1 1 2 4 0 2 4 2 2 3 1 1 2 1 1 2 2 3 3 4 4 4 4 4 5 5 5 5 5 5 7
12 12 13 14 14 12 13 13 9 10 11 11 10 9 9 8 7 7 6 7 7 7 6 6 8 8 8 7 7 6 7 7 8 8 8 8 8 6 5 6 6 6 7 6 4 3 3 3 3 2 2 3 3 1 3 1 2 1 4 5 1 2 2 2 3 5 7 3 2 2 2 3 4 4 3 4 4 5 5 5 5 5 5 5 6
14 15 14 12 12 12 12 13 11 11 11 11 11 11 10 9 9 7 8 6 7 8 9 9 9 9 9 8 7 7 8 7 7 8 7 7 8 7 5 5 5 5 4 4 5 5 5 5 4 4 3 2 3 1 3 3 2 1 2 3 3 4 2 1 1 8 4 3 2 3 3 4 6 4 3 4 6 6 5 5 5 5 6 6 5
12 11 11 14 12 13 13 13 12 11 11 12 12 11 11 10 10 9 9 9 7 7 8 7 7 8 9 8 8 8 9 9 8 7 6 7 7 7 6 6 7 7 6 6 6 7 6 5 4 5 3 2 2 1 1 3 3 0 2 1 3 2 4 1 6 3 1 2 0 2 2 5 5 5 3 5 6 6 6 5 5 6 5 5 5
12 13 14 14 12 17 15 14 12 13 12 12 13 11 8 8 7 3 3 3 1 5 6 7 8 8 7 8 8 8 8 9 9 10 8 6 6 6 6 7 7 6 5 6 6 7 6 5 6 5 6 5 3 2 1 0 3 1 1 1 1 1 1 3 8 2 0 6 1 1 3 3 4 4 4 5 5 4 5 6 6 5 5 5 5
13 14 14 15 15 13 13 13 12 12 12 13 13 11 11 11 9 9 8 8 9 7 10 10 7 7 8 5 8 9 9 8 7 8 9 8 8 8 8 7 6 5 6 7 6 4 5 5 6 6 6 5 3 4 2 2 2 2 1 0 1 1 2 2 2 4 5 3 5 7 7 3 4 9 7 6 7 7 3 5 6 7 6 5 5
15 12 11 12 12 12 12 14 13 12 12 12 13 12 12 11 13 14 12 12 11 9 8 7 8 8 7 8 8 8 9 10 8 7 6 7 8 7 8 7 6 5 5 6 5 6 5 5 5 5 5 5 5 4 5 3 3 3 2 2 4 4 4 2 2 3 6 4 4 5 7 8 9 10 10 9 8 8 6 4 5 5 6 5 5
12 8 10 9 12 14 14 14 12 11 11 11 13 13 13 13 13 13 12 12 12 12 10 9 8 8 8 9 8 7 7 6 7 7 7 6 7 7 7 6 6 6 6 6 5 4 4 2 4 5 4 5 6 6 7 5 4 3 2 3 4 3 3 3 3 2 3 5 6 3 1 6 8 6 8 9 9 7 9 8 7 6 5 5 5
7 10 11 11 11 11 11 10 11 11 10 12 12 13 13 13 13 12 12 11 11 10 6 7 8 8 10 7 7 7 7 7 6 5 6 6 6 7 7 6 6 5 5 4 4 5 6 7 5 5 5 5 4 4 5 5 4 4 4 3 3 3 2 2 4 4 1 2 5 4 6 4 6 4 3 5 6 6 7 7 6 6 5 5 7
8 8 7 7 9 9 11 12 13 11 11 12 12 13 14 12 12 13 14 11 9 6 6 7 8 7 9 8 7 7 6 6 6 6 6 7 7 6 6 6 6 6 5 6 6 6 6 6 6 5 6 7 6 6 6 5 4 5 4 4 2 2 3 2 2 2 2 4 4 5 4 6 6 5 6 2 4 8 7 5 6 6 5 6 6
6 7 8 9 9 10 12 13 15 11 11 12 13 15 13 13 13 13 14 14 12 10 7 7 7 7 8 8 8 7 6 7 6 6 7 6 6 6 6 6 7 7 6 7 7 6 6 7 8 8 7 8 7 6 6 5 5 5 5 4 3 3 4 3 3 3 3 1 2 5 3 3 6 8 2 4 8 7 5 4 3 4 4 5 4
Wind_Direction
187 194 247 313 327 108 106 102 93 78 101 98 98 101 103 107 101 91 87 84 82 78 77 79 80 79 77 77 77 79 80 79 85 81 83 78 78 79 76 75 76 75 72 72 77 82 83 85 83 81 79 77 74 73 72 72 70 70 70 67 66 65 63 61 58 56 55 53 55 61 61 61 61 60 58 57 57 56 53 53 51 56 55 51 50
164 194 285 322 258 128 131 127 102 90 93 98 109 107 111 101 97 88 87 89 87 83 81 81 83 86 80 77 78 78 80 81 79 73 73 76 79 77 74 75 76 76 75 75 78 79 81 81 79 77 77 77 76 75 73 73 72 72 71 69 69 67 65 63 61 58 54 50 47 40 51 62 61 60 59 58 56 54 51 54 52 56 59 58 56
113 115 333 313 9 18 41 117 107 114 106 103 107 108 102 100 92 89 84 85 85 89 96 90 79 76 83 90 86 82 82 80 81 82 83 74 70 77 79 78 79 78 80 80 80 80 82 80 78 77 76 74 74 72 73 73 74 74 72 70 70 69 66 63 59 55 53 50 45 43 34 54 61 57 57 58 57 50 44 46 48 53 55 52 56
116 102 11 46 48 52 81 99 112 118 107 112 116 112 103 102 99 96 97 88 82 84 85 83 82 83 80 81 84 84 83 83 83 82 82 78 77 75 81 80 78 79 79 78 80 82 80 80 80 78 77 76 74 73 73 74 72 72 71 71 70 68 66 63 58 54 50 47 42 36 42 40 51 52 61 58 56 50 45 48 49 52 50 46 56
111 96 88 59 51 69 82 95 111 112 113 116 113 102 95 95 100 96 89 89 91 89 83 79 86 93 83 79 83 82 83 79 79 80 83 84 84 86 86 82 86 86 81 80 82 85 86 84 82 79 76 75 74 75 75 76 74 74 73 71 70 68 65 61 56 52 47 43 38 41 44 44 41 47 53 56 53 50 52 53 50 51 48 45 45
115 106 80 64 57 76 87 109 111 115 121 122 112 106 105 99 94 90 93 96 98 91 89 88 88 85 88 84 81 81 82 88 90 89 83 82 86 87 90 95 85 80 81 82 83 82 82 85 83 81 79 78 79 77 77 76 75 73 72 71 69 67 63 60 56 51 44 40 37 49 43 38 41 55 52 52 55 54 58 53 47 46 52 47 40
113 98 80 73 62 73 98 108 114 118 117 113 111 106 98 89 90 97 96 98 98 96 95 101 93 83 84 88 86 86 86 89 89 86 88 89 84 86 89 88 86 85 82 80 81 84 84 83 82 81 82 80 79 77 77 76 75 73 72 70 69 68 64 59 54 49 38 39 50 46 47 35 33 41 57 57 57 53 45 47 46 41 50 48 43
92 78 81 75 73 83 99 111 117 120 119 116 114 104 92 93 91 93 94 98 95 95 104 105 96 91 90 91 91 90 88 86 84 83 82 82 90 91 84 81 86 82 79 80 80 83 84 84 84 84 83 83 83 81 79 78 76 75 73 72 70 67 62 57 51 46 36 47 43 49 46 38 32 34 61 57 57 54 49 45 41 48 55 50 46
89 77 77 76 79 92 103 112 118 122 118 113 108 107 101 94 92 93 99 96 97 99 97 94 96 96 87 85 89 92 92 89 87 93 92 94 89 88 92 92 86 85 84 80 80 81 83 84 82 82 84 82 82 82 81 78 76 75 74 73 71 66 61 55 50 38 47 46 41 53 53 51 49 55 61 59 54 53 54 42 52 53 52 50 43
91 81 73 85 94 102 110 110 118 119 119 116 115 108 100 96 95 95 102 107 103 94 96 96 93 99 106 97 96 93 90 90 94 89 87 86 83 84 85 83 86 88 85 84 83 83 83 83 85 81 78 79 80 79 78 78 77 76 75 73 71 66 59 54 47 43 43 43 40 34 36 17 45 50 51 52 53 56 57 36 48 34 47 48 40
108 78 82 89 96 118 122 116 115 116 119 118 114 108 104 102 99 99 100 110 103 108 112 99 103 104 104 98 91 94 97 94 91 88 88 90 91 88 84 88 92 91 87 83 82 84 85 84 80 79 78 79 79 80 80 79 79 78 76 73 68 63 59 51 42 50 43 39 34 26 25 5 13 55 55 54 46 63 75 44 41 35 34 48 41
117 96 85 84 91 100 117 121 118 117 118 118 112 111 109 104 101 105 103 112 114 114 113 108 107 110 110 101 99 98 93 99 100 99 98 94 92 93 96 99 103 96 91 84 76 76 83 83 82 81 81 81 83 82 82 82 81 79 77 72 69 63 54 47 45 45 41 33 32 14 19 16 7 54 47 55 48 44 40 36 41 37 28 47 35
122 101 88 85 83 88 96 109 122 121 121 118 114 114 111 107 107 108 103 103 106 117 110 107 104 108 109 104 102 97 98 90 86 92 91 91 91 88 91 98 98 96 90 86 81 81 83 82 82 82 83 85 83 84 84 84 83 82 78 74 69 62 55 41 47 43 37 31 26 18 8 3 34 47 46 38 40 39 39 32 44 48 27 40 31
128 116 96 89 83 86 84 89 115 125 127 122 119 117 115 112 113 109 107 104 116 105 104 107 107 111 107 106 109 108 105 105 98 97 97 96 94 92 91 91 97 94 89 88 83 78 81 86 85 85 86 87 85 83 83 83 83 79 77 72 65 57 49 54 40 38 38 31 23 15 6 358 8 53 51 59 59 45 49 34 35 30 44 56 37
133 124 111 77 80 79 83 83 93 108 103 96 120 128 123 120 119 113 113 119 118 114 119 112 115 115 110 108 107 107 103 103 100 90 88 88 93 91 89 95 96 96 95 87 83 81 80 82 84 85 88 87 84 82 82 83 80 77 73 70 62 54 44 53 42 38 32 25 21 9 11 0 23 42 28 45 40 32 30 22 32 12 26 27 25
135 125 111 86 76 74 65 85 84 98 106 99 82 101 115 120 119 119 121 124 122 110 100 110 115 116 111 106 105 107 105 100 100 102 105 97 91 90 92 92 93 95 93 93 88 85 82 83 86 85 82 80 78 77 76 76 76 69 64 59 56 50 45 31 48 35 26 20 16 13 5 9 360 37 33 36 35 31 35 20 40 17 16 4 28
139 128 117 104 90 80 77 71 85 98 106 102 99 97 105 115 119 121 115 81 112 131 102 104 110 118 119 114 101 83 82 84 72 68 68 65 63 79 88 92 91 93 92 97 86 81 79 77 81 80 77 73 69 65 63 62 62 59 52 48 42 43 36 21 38 28 20 19 3 360 12 6 343 29 48 31 24 21 26 32 36 18 17 12 15
151 141 121 119 114 96 93 97 83 85 106 102 106 106 106 106 105 90 81 82 68 80 94 95 95 88 95 98 96 87 86 85 81 75 69 62 52 41 89 100 98 93 91 83 79 74 73 75 73 74 71 67 63 58 52 50 49 48 44 39 37 33 29 15 25 14 15 5 357 1 4 348 331 7 19 23 34 27 31 24 18 14 2 8 2
155 158 151 140 125 122 117 93 90 95 110 114 93 115 113 110 100 97 94 92 86 82 92 101 98 83 85 93 91 89 89 87 81 74 68 63 52 44 48 73 89 86 83 83 77 74 68 70 69 66 64 62 58 55 51 47 44 41 41 38 36 29 22 11 13 3 357 357 357 353 350 334 332 348 354 5 25 17 33 2 11 28 354 352 0
162 167 168 163 152 137 133 130 122 121 126 122 110 96 113 110 105 100 98 95 95 93 88 91 95 94 92 96 96 95 91 87 85 76 69 65 57 49 53 73 87 88 85 84 77 69 66 66 68 64 60 57 52 47 42 43 44 40 32 32 32 21 13 7 360 357 343 351 347 345 336 333 333 333 341 1 6 7 36 350 1 4 355 6 346
172 176 184 171 169 158 147 143 148 138 133 128 116 107 78 87 90 95 101 101 102 99 95 92 93 95 100 95 97 94 95 93 85 86 79 70 61 57 59 65 81 82 78 75 72 62 59 62 63 60 57 56 54 53 42 34 31 25 26 24 12 7 13 358 353 344 342 338 342 334 335 333 333 331 346 351 346 347 342 351 349 357 346 2 345
179 179 195 187 179 174 164 153 151 151 141 136 128 122 120 106 125 123 113 108 106 108 106 105 97 104 98 99 98 106 105 91 85 87 78 77 66 64 67 75 73 66 77 71 60 51 50 54 49 49 49 48 46 47 37 37 31 18 18 15 18 10 359 354 346 339 336 335 333 328 331 333 331 331 338 334 334 349 360 284 295 318 331 328 349
185 188 191 191 194 181 179 166 160 157 152 146 144 141 145 146 150 142 129 123 120 113 125 116 123 116 109 106 108 116 111 97 82 75 80 65 61 49 64 64 58 49 55 58 53 46 44 47 46 46 45 43 45 43 31 25 34 28 26 29 23 14 353 346 338 329 323 326 312 320 323 325 326 326 329 328 335 342 14 282 288 296 305 306 317
187 187 182 187 190 192 190 182 171 168 163 158 158 160 159 161 159 157 148 139 125 130 129 137 135 128 126 120 122 119 111 109 87 77 78 72 65 60 53 65 64 57 44 58 52 47 41 49 44 42 43 36 33 37 29 28 28 13 22 22 16 3 354 351 341 325 315 311 304 311 311 315 315 316 321 322 328 324 330 317 317 292 278 297 302
187 177 185 191 190 191 192 191 182 177 173 168 168 178 168 165 169 165 158 153 142 138 136 143 141 137 134 129 129 117 115 118 122 112 99 105 100 85 69 64 54 70 35 51 33 28 26 21 30 30 30 15 0 22 10 13 15 6 0 2 355 347 342 342 335 326 315 313 303 307 297 302 308 309 310 315 318 320 321 320 316 323 308 300 300
168 188 196 193 193 192 193 193 193 192 189 182 182 176 168 176 174 172 169 166 164 156 153 149 153 142 141 132 126 111 111 124 135 133 123 127 133 128 93 63 75 69 37 35 25 24 32 25 29 22 20 9 32 19 22 25 353 343 339 345 343 336 331 329 327 316 311 306 303 307 299 300 305 311 311 309 308 310 312 311 313 317 312 303 304
178 196 189 196 196 196 195 196 198 196 196 191 183 180 190 188 177 179 176 184 171 166 174 176 162 154 149 149 142 138 132 121 140 147 154 147 158 155 153 111 127 97 36 41 17 12 20 23 21 20 333 311 314 305 5 34 266 316 312 306 317 314 318 314 315 310 306 303 303 300 295 298 303 304 306 308 310 310 309 309 309 308 308 308 309
177 187 189 194 195 197 196 197 200 197 198 194 191 191 191 191 195 172 196 187 175 192 194 193 176 173 167 166 159 155 154 148 163 154 130 165 194 187 202 201 156 129 131 74 343 319 312 355 279 281 275 240 294 311 320 318 295 305 307 294 290 296 299 308 301 297 303 304 301 302 298 290 288 294 301 306 309 311 310 309 307 309 312 312 314
193 191 190 194 199 195 193 199 199 201 199 193 195 196 191 195 196 194 200 182 196 197 196 193 200 194 188 178 164 152 156 158 177 180 168 198 198 209 213 225 217 207 201 235 231 238 255 257 242 240 237 286 302 312 324 309 308 289 301 299 295 289 287 289 288 299 297 299 301 299 301 300 301 303 303 305 307 309 310 311 310 310 311 313 317
197 195 189 196 193 194 196 200 198 198 198 194 197 196 197 199 202 203 200 189 202 200 190 198 202 197 196 197 193 172 174 179 181 155 178 206 211 207 220 228 230 222 214 237 235 238 251 256 249 232 267 290 297 288 301 303 285 250 231 260 262 269 284 293 303 301 301 293 289 290 293 296 304 306 308 307 307 309 311 312 312 313 313 313 315
194 195 198 196 187 190 202 201 199 196 198 199 199 199 196 203 202 202 203 202 201 199 200 202 203 201 199 193 202 204 181 183 180 171 200 202 205 210 225 227 242 227 223 234 229 238 247 260 274 294 300 301 287 279 256 281 285 278 252 262 313 330 312 295 286 289 290 292 291 291 297 301 302 304 305 307 309 311 314 316 316 316 316 316 315
202 203 202 192 183 191 202 202 201 194 200 203 197 202 203 204 205 204 207 207 199 205 203 200 201 201 193 195 200 203 197 187 182 178 197 196 203 212 214 223 240 217 219 230 230 230 243 255 265 267 259 258 270 263 234 247 281 295 322 320 335 314 304 301 298 297 292 292 290 294 302 307 304 296 300 303 308 312 314 316 316 317 317 318 319
204 205 199 187 198 196 199 202 200 194 201 205 203 207 204 203 205 208 209 205 206 208 210 209 202 196 192 196 198 199 202 192 193 187 188 199 195 197 216 228 236 223 212 219 230 235 237 243 248 236 254 248 264 265 244 254 276 284 310 308 313 298 295 299 297 297 306 303 301 305 306 312 305 296 285 290 304 310 314 316 318 319 321 323 323
203 205 202 206 202 205 201 199 196 201 204 207 203 203 206 206 206 210 210 207 211 211 215 211 202 197 196 196 196 199 199 204 182 184 182 185 195 200 212 237 225 216 211 195 220 210 243 250 243 220 228 227 242 258 308 292 270 280 280 283 269 287 307 296 294 304 310 301 311 319 320 313 313 318 319 308 301 309 316 321 322 323 325 324 323
202 205 210 209 208 213 205 206 188 201 199 206 201 205 203 204 207 209 211 209 210 212 214 208 201 195 195 199 199 198 201 197 188 179 183 183 184 200 209 223 194 187 193 198 211 212 219 234 226 247 270 264 279 288 266 266 295 299 286 274 296 321 281 281 294 296 308 313 317 318 317 316 321 317 317 320 322 322 322 322 326 328 329 328 327
209 209 207 203 214 215 217 218 197 198 204 205 204 205 203 204 208 208 212 206 207 210 209 206 200 185 193 199 202 200 200 188 186 185 184 190 194 205 216 217 196 183 194 179 193 225 219 234 221 218 263 268 242 271 227 269 279 275 280 318 308 285 295 294 295 310 326 320 319 320 319 317 316 319 322 323 329 329 328 327 330 331 331 330 330
210 208 205 202 211 214 215 221 214 203 203 199 206 208 204 206 209 207 208 205 207 209 209 206 203 197 192 198 197 200 200 187 187 185 193 192 204 213 230 221 202 203 185 188 187 203 208 218 226 202 203 245 245 258 263 255 276 275 309 305 282 284 282 294 302 326 325 314 320 320 315 313 311 316 327 333 330 329 336 334 333 331 328 328 329
211 211 207 207 210 207 211 212 216 211 208 202 200 205 207 206 207 208 205 210 210 210 208 199 204 203 193 200 189 193 193 191 185 186 197 190 184 192 208 197 187 191 188 198 209 197 208 212 241 220 199 199 247 263 289 289 266 292 301 288 286 288 283 283 316 333 321 315 321 324 328 316 317 333 334 333 332 336 331 336 331 325 330 331 333
209 208 207 206 204 205 203 207 212 211 209 207 203 202 202 205 206 207 209 211 212 211 204 204 209 207 205 200 188 192 195 192 190 183 194 189 205 210 184 179 180 185 200 208 230 210 206 205 225 233 163 220 252 257 272 290 292 296 295 286 292 285 281 277 331 318 306 301 311 324 313 325 328 339 337 335 344 337 337 336 338 339 339 337 332
202 203 209 205 207 204 201 205 209 208 207 207 200 202 199 198 199 197 209 203 205 201 204 206 205 209 210 200 195 196 193 194 190 188 195 194 196 199 195 188 194 197 195 205 219 205 212 204 221 241 264 264 209 251 238 263 279 279 274 282 275 282 273 3 339 336 300 320 325 339 342 330 342 344 347 341 341 343 341 339 336 336 330 331 329
203 201 207 210 208 208 198 208 204 198 201 201 196 195 198 200 206 207 207 197 198 198 205 206 208 210 201 199 196 198 193 194 196 188 197 198 202 216 197 193 186 181 199 218 218 219 206 190 179 157 215 286 304 123 100 138 311 296 157 253 293 245 304 16 13 329 335 9 343 354 2 344 352 347 353 337 338 343 340 339 335 332 331 328 331
211 204 208 210 211 207 207 213 196 198 204 201 198 203 204 198 196 204 194 196 191 192 203 205 210 207 202 196 196 190 192 191 194 193 197 195 204 216 218 213 188 192 199 212 215 216 193 167 151 188 198 233 262 154 161 161 298 253 315 327 253 288 353 51 41 5 357 5 10 8 11 354 338 341 343 335 332 338 338 335 333 330 330 333 332
212 208 211 212 213 213 216 215 204 197 204 201 200 208 206 204 204 201 192 198 201 201 206 207 203 207 207 196 188 190 193 195 191 192 192 199 206 207 201 202 199 199 193 205 213 216 212 213 189 209 230 204 244 225 201 186 249 203 260 295 345 353 340 6 325 357 323 14 4 18 356 344 338 340 345 335 339 336 342 332 327 328 333 335 335
214 208 206 212 212 216 216 211 206 202 203 203 204 208 203 202 208 206 198 201 201 203 213 208 200 205 213 204 206 196 191 191 188 189 197 202 206 207 207 199 206 196 201 208 206 232 224 217 210 215 185 211 204 241 246 195 177 170 334 24 303 10 326 115 327 310 153 323 100 353 0 346 332 336 340 346 338 329 333 330 326 334 335 335 335
211 208 206 208 209 212 210 206 204 203 204 200 200 198 187 194 203 183 182 187 86 188 203 212 203 198 199 195 201 198 205 203 186 185 189 200 201 203 206 214 200 187 195 216 221 225 216 212 202 197 181 185 191 169 53 108 186 211 151 213 291 320 211 319 336 288 297 346 4 171 346 351 338 328 333 338 330 320 324 328 329 335 340 338 339
213 212 208 211 210 211 207 208 209 206 205 200 194 187 193 192 184 185 193 197 207 189 203 207 188 194 199 189 195 194 198 207 206 194 182 189 212 212 212 208 197 198 204 217 218 198 200 202 202 191 192 197 179 162 143 54 18 44 33 26 321 278 324 350 1 315 325 355 330 343 345 19 354 343 342 341 340 326 331 326 339 335 340 341 340
221 210 211 214 211 213 210 209 208 207 203 198 189 189 195 197 196 199 201 202 209 214 210 197 192 192 182 188 194 199 199 197 198 196 203 205 222 217 219 215 196 198 197 202 197 198 197 197 171 186 192 171 163 168 166 136 99 48 40 49 62 77 109 82 314 318 321 329 342 348 340 353 1 345 334 336 334 327 328 346 341 337 333 342 346
216 200 215 209 209 211 208 210 210 209 203 196 191 192 195 196 199 204 205 209 210 216 199 198 189 175 188 191 188 193 197 203 198 193 193 206 214 217 207 200 193 191 185 196 194 172 144 113 145 167 145 156 175 174 150 145 153 134 57 80 79 84 96 150 186 180 225 289 312 344 340 357 336 325 315 322 324 320 322 334 342 338 336 344 5
222 209 209 207 210 213 214 213 213 209 206 197 195 196 198 196 199 201 207 213 211 215 192 185 183 177 188 186 187 189 193 194 196 202 202 207 208 210 198 195 192 181 173 168 159 158 153 140 137 136 147 143 140 126 129 144 148 149 149 119 119 92 66 87 115 71 130 221 280 290 306 332 305 266 265 287 298 302 313 321 329 329 332 349 14
216 219 217 204 207 205 210 209 215 207 202 199 198 200 201 199 203 203 206 206 204 197 161 179 186 177 188 184 187 188 191 199 202 214 218 208 201 196 192 179 169 152 152 148 144 141 138 136 138 137 144 128 119 130 132 136 141 139 131 133 138 120 101 130 103 64 244 218 247 279 306 316 325 310 316 296 303 308 315 326 330 331 334 11 9
218 212 215 208 205 204 207 209 214 206 201 200 196 202 201 203 207 205 205 206 199 189 168 184 183 181 190 185 171 190 189 198 195 210 215 193 189 180 175 165 148 144 141 147 150 141 139 137 134 131 130 125 126 124 119 130 128 117 112 112 133 165 168 170 171 171 168 192 266 268 275 272 286 300 272 320 316 307 306 315 316 309 354 10 22